Location: Unspecified
(0.0000°N, 0.0000°E)
Time: 11:21:20
(UTC+00:00)

Altair - Pass Details

Date: 19 November 2019
Orbit: 1502 x 1682 km, 47.2° (Epoch: 07 December)

Event Time Altitude Azimuth Distance (km) Brightness Sun altitude
Rises 12:27:34 0° 308° (NW) 4,780 10.1 68.0°
Reaches altitude 10° 12:30:44 10° 303° (WNW) 3,821 9.7 67.6°
Maximum altitude 12:40:06 51° 230° (SW) 2,001 10.0 66.4°
Drops below altitude 10° 12:49:47 10° 157° (SSE) 3,935 10.0 64.9°
Sets 12:53:08 0° 151° (SSE) 4,931 10.3 64.4°
